This demonstration page uses our WeatherBlox Daily Observations layout. Learn more.

Left ArrowRight Arrow

38.20091, -84.87328

Hourly Observations for October 23, 2021

Temp ( °F °C ) Dew Point ( °F °C ) Humidity (%) Winds ( mph kmh ) Pressure ( in mb ) Visibility ( mi km ) Precip ( " mm )
12:53 am 00:53 Cloudy 53 11.7 49 9.4 86 86 SW 7 11 30.02 1017 10 16 N/A
1:51 am 01:51 Mostly Cloudy 52 11 48 9 88 88 SW 8 13 30.03 1017 10 16 N/A
1:53 am 01:53 Mostly Cloudy 52 11.1 48 8.9 86 86 SW 7 11 30.01 1016 10 16 N/A
2:27 am 02:27 Mostly Cloudy 50 10 48 8.9 93 93 SSW 5 7 30.03 1017 10 16 N/A
2:37 am 02:37 Partly Cloudy 50 10 48 8.9 93 93 SW 5 7 30.03 1017 10 16 N/A
2:51 am 02:51 Mostly Cloudy 50 10 48 9 94 94 SSW 5 7 30.03 1017 10 16 N/A
2:53 am 02:53 Mostly Cloudy 50 10 48 8.9 93 93 SSW 5 7 30.01 1016 10 16 N/A
3:03 am 03:03 Mostly Cloudy 50 10 49 9.4 96 96 SSW 3 6 30.03 1017 10 16 N/A
3:53 am 03:53 Mostly Cloudy 50 10 48 8.9 93 93 N N/A 30.03 1017 10 16 N/A
4:38 am 04:38 Cloudy 50 10 48 8.9 93 93 N N/A 30.06 1018 10 16 N/A
4:53 am 04:53 Partly Cloudy 49 9.4 47 8.3 93 93 WNW 3 6 30.05 1018 10 16 N/A
5:53 am 05:53 Partly Cloudy 48 8.9 46 7.8 93 93 W 3 6 30.05 1018 10 16 N/A
6:53 am 06:53 Mostly Clear 46 7.8 44 6.7 93 93 SW 3 6 30.06 1018 9 14 N/A
7:53 am 07:53 Clear with Mist and Fog 45 7.2 44 6.7 97 97 WSW 5 7 30.08 1019 6 10 N/A
8:27 am 08:27 Sunny with Mist and Fog 44 6.7 44 6.7 100 100 N N/A 30.10 1019 1 2 N/A
8:34 am 08:34 Sunny with Fog 45 7.2 44 6.7 97 97 N N/A 30.11 1020 1 1 N/A
8:39 am 08:39 Sunny with Mist and Fog 45 7.2 44 6.7 97 97 N N/A 30.11 1020 2 3 N/A
8:41 am 08:41 Sunny with Mist and Fog 45 7.2 44 6.7 97 97 N N/A 30.11 1020 3 5 N/A
8:53 am 08:53 Sunny 46 7.8 45 7.2 96 96 N N/A 30.08 1019 8 13 N/A
9:53 am 09:53 Sunny 52 11.1 48 8.9 86 86 N N/A 30.09 1019 10 16 N/A
10:53 am 10:53 Sunny 55 12.8 47 8.3 74 74 N N/A 30.10 1019 10 16 N/A
11:53 am 11:53 Mostly Sunny 58 14.4 46 7.8 65 65 WSW 5 7 30.09 1019 10 16 N/A
12:53 pm 12:53 Sunny 61 16.1 44 6.7 54 54 VRB 6 9 30.06 1018 10 16 N/A
1:53 pm 13:53 Sunny 62 16.7 46 7.8 56 56 SW 5 7 30.04 1017 10 16 N/A
2:53 pm 14:53 Mostly Sunny 63 17.2 49 9.4 60 60 VRB 6 9 30.02 1017 10 16 N/A
3:53 pm 15:53 Mostly Sunny 63 17.2 48 8.9 58 58 SSW 6 9 30.01 1016 10 16 N/A
4:53 pm 16:53 Partly Cloudy 63 17.2 51 10.6 65 65 SSW 6 9 30.01 1016 10 16 N/A
5:53 pm 17:53 Cloudy 62 16.7 50 10 65 65 SW 6 9 30.01 1016 10 16 N/A
6:53 pm 18:53 Cloudy 59 15 54 12.2 83 83 N N/A 30.01 1016 10 16 0.00 0.00
7:53 pm 19:53 Cloudy with Light Rain 58 14.4 55 12.8 90 90 N N/A 30.01 1016 7 11 0.04 1.02
8:53 pm 20:53 Cloudy 58 14.4 55 12.8 90 90 N N/A 30.01 1016 10 16 0.02 0.51
9:53 pm 21:53 Cloudy with Light Rain 57 13.9 56 13.3 96 96 N N/A 30.02 1017 6 10 0.00 0.00
10:53 pm 22:53 Cloudy with Light Rain 57 13.9 55 12.8 93 93 SW 3 6 30.03 1017 5 8 0.03 0.76
11:53 pm 23:53 Cloudy 57 13.9 55 12.8 93 93 ENE 3 6 30.01 1016 10 16 0.01 0.25

Powered by AerisWeather